Погода в Мафикенге

ЮАР     25°52′18″S   25°36′23″E
В апреле 2022 года жителям России запретили посещать сайт meteo.paraplan.net по решению Генеральной прокуратуры. Аудитория сайта уменьшилась в 10 раз. Владельцы сайта не видят смысла в поддержке погодного сервера в таких условиях. Сайт будет закрыт в октябре.
темп.,
°C
ветер,
м/с
пор.,
м/с
влажн.,
%
обл.,
%
осадки,
мм/ч
давл.,
гПа
погр.,
м
25 сентября, вс
вс2523:00+23св513305 0.0 1014301
02:00+23св8143459 0.0 1013636
05:00+19св919505 0.0 1014572
08:00+22ссв1217401 0.0 1015736
11:00+29ссв1012255 0.0 10141328
14:00+32с87185 0.0 10093022
17:00+31ссв66174 0.0 10083211
20:00+25св612250 0.0 1010276
26 сентября, пн
пн2623:00+24св715280 0.0 1011361
02:00+23ссв817290 0.0 1010500
05:00+18зсз14344 0.0 101399
08:00+23ссв34260 0.0 1015506
11:00+30с67170 0.0 10121581
14:00+33с67141 0.0 10083301
17:00+33ссз461378 0.0 10064095
20:00+25св44207 0.0 101055
27 сентября, вт
вт2723:00+24ссв4112178 0.0 1012196
02:00+19ю222749 0.0 101342
05:00+19всв342716 0.0 101445
08:00+25ссв814195 0.0 1016706
11:00+32ссв88143 0.0 10151681
14:00+34с65120 0.0 10113509
17:00+33ссв55122 0.0 10113788
20:00+26св510194 0.0 1014166
28 сентября, ср
ср2823:00+25св917211 0.0 1016768
02:00+22св918353 0.0 1017662
05:00+20св818425 0.0 1017601
08:00+22св915441 0.0 1020808
11:00+28св1012250 0.0 10181628
14:00+32св89130 0.0 10152470
17:00+31ссв77130 0.0 10142780
20:00+23ссв512210 0.0 1017285
29 сентября, чт
чт2923:00+20св614270 0.0 1019393
02:00+19св715380 0.0 1018484
05:00+17св715420 0.0 1018424
08:00+21ссв913375 0.0 1019805
11:00+26ссв89240 0.0 10181375
14:00+30ссв66181 0.0 10141934
17:00+29ссв56180 0.0 10121828
20:00+22ссв46290 0.0 101688